Wind_Speed
129 127 124 122 120 117 109 109 109 105 102 102 102 100 99 99 97 95 94 91 92 92 92 92 89 93 94 90 88 87 90 92 92 92 95 97 95 97 102 101 99 101 106 106 107 108 108 109 114 114 115 118 124 126
134 132 129 126 125 125 121 120 114 113 113 110 110 109 108 109 109 105 99 96 102 99 101 99 100 94 95 100 96 96 99 100 99 99 103 104 103 103 103 103 105 108 111 112 114 116 123 121 120 123 126 128 130 129
142 140 138 133 130 129 128 128 125 123 119 116 115 114 119 118 114 112 108 106 106 108 108 106 107 105 103 103 104 104 106 106 108 109 106 107 107 108 108 107 110 115 118 119 121 125 127 129 135 137 135 133 133 132
144 146 142 140 138 136 132 130 128 127 125 124 124 121 121 122 124 119 115 117 114 110 112 112 112 110 109 108 112 115 113 113 114 115 110 113 115 114 112 113 116 123 124 124 126 131 131 137 141 139 136 136 132 127
121 130 140 143 143 142 138 138 138 135 132 131 129 126 125 130 130 126 122 123 122 118 117 118 119 115 115 117 118 119 120 117 117 117 117 119 120 121 118 118 123 131 130 129 132 138 138 139 140 137 129 122 118 113
110 112 120 131 136 138 139 138 138 138 134 135 135 133 130 131 132 131 130 132 130 127 127 124 123 121 123 124 124 125 123 126 122 121 124 125 126 126 125 125 135 136 132 134 135 137 143 139 129 120 115 116 113 108
99 105 105 110 123 131 134 135 137 138 138 138 138 137 137 133 136 136 134 134 133 130 131 129 127 129 130 131 130 128 129 131 130 126 126 128 129 130 131 134 132 133 139 140 136 125 122 117 110 111 111 107 102 96
93 91 100 105 108 112 114 118 125 132 138 141 143 142 138 138 142 141 138 136 136 137 137 136 135 135 136 137 137 137 136 134 132 133 133 133 137 140 137 135 130 131 129 127 125 124 116 107 105 102 103 101 96 92
83 90 92 92 96 105 110 112 116 120 127 134 136 138 140 141 145 145 143 142 142 139 140 142 143 142 140 141 142 141 140 133 130 132 136 139 142 143 132 125 120 119 119 118 115 115 108 103 100 101 95 90 85 81
70 75 82 89 93 94 96 102 110 116 117 120 120 115 113 117 124 130 140 145 146 147 146 146 146 145 142 141 143 137 128 125 125 130 127 119 114 118 111 113 113 113 113 111 101 96 95 95 94 88 85 81 76 75
65 68 72 75 80 85 91 95 99 101 103 112 118 114 115 112 110 106 112 118 122 124 127 133 130 126 124 123 119 118 118 117 117 117 118 114 113 111 110 109 106 104 103 97 89 85 82 81 79 77 77 74 71 70
56 60 65 69 72 76 79 82 87 93 99 101 104 103 106 103 102 104 104 108 111 118 121 121 121 119 115 114 113 112 115 117 118 118 116 114 109 103 105 100 95 93 85 79 80 76 75 74 71 68 66 65 66 64
51 53 56 60 63 68 72 74 77 80 83 86 89 93 98 98 98 99 101 101 102 104 106 106 109 114 115 115 112 110 110 110 111 111 108 101 98 97 92 88 85 82 77 74 71 68 65 65 66 61 59 56 56 55
48 49 52 54 56 59 62 66 68 70 73 77 77 77 81 81 82 82 84 87 95 96 96 96 97 99 101 102 102 102 98 95 95 89 86 87 85 81 79 74 69 66 67 63 60 59 58 56 56 51 47 48 48 47
44 45 47 49 52 55 57 57 57 60 64 67 68 66 64 65 65 71 77 79 78 79 79 80 82 84 86 87 87 85 83 82 77 77 75 72 70 68 67 65 61 60 56 54 52 51 50 47 46 45 41 40 40 41
39 40 42 42 46 49 48 48 50 52 54 56 56 57 60 58 58 64 71 69 69 68 66 67 69 69 70 71 71 70 69 68 68 67 66 63 61 58 55 57 55 50 47 46 45 43 41 39 39 38 36 35 34 34
35 34 34 37 40 40 39 40 43 43 42 44 51 55 55 54 52 55 54 54 55 57 60 61 63 62 60 59 57 56 57 58 58 59 58 55 53 49 51 51 45 42 41 38 38 35 33 33 33 33 31 29 28 29
28 30 32 34 35 33 33 35 35 35 40 46 47 48 48 46 46 44 41 40 43 48 50 51 53 54 54 52 51 50 51 51 51 51 49 43 39 42 42 40 36 35 33 30 29 28 28 29 28 25 24 26 25 26
25 25 26 27 28 28 28 30 31 34 38 40 40 40 41 40 38 38 33 36 43 43 44 41 43 46 46 44 42 41 42 42 43 40 36 32 33 35 33 30 27 26 25 24 24 24 22 23 23 21 23 22 21 20
21 21 21 21 23 23 25 26 29 32 35 36 35 33 32 32 32 31 30 35 38 38 37 33 35 35 35 33 33 34 31 35 33 30 28 26 24 28 24 22 21 22 21 20 19 19 17 18 19 19 19 17 15 14
16 17 18 18 19 20 20 23 26 30 30 29 27 27 28 30 32 31 29 35 35 33 32 27 24 26 29 26 25 26 31 28 22 25 23 15 19 23 20 18 17 17 17 14 13 17 19 17 14 13 14 14 13 11
11 12 12 14 15 16 19 22 25 26 27 26 24 28 29 29 28 23 28 32 30 31 24 14 25 26 23 20 21 26 23 19 18 18 17 18 16 16 16 14 12 11 11 11 13 14 12 10 11 11 11 10 8 6
8 8 9 10 12 14 17 20 22 23 23 22 23 24 23 22 22 25 29 27 28 20 16 25 24 15 14 17 18 20 16 13 14 13 14 14 12 12 12 9 6 7 11 13 10 8 8 9 9 7 5 5 4 4
4 4 5 7 8 10 12 15 17 17 15 15 15 13 12 14 18 25 27 21 15 19 26 20 13 14 16 13 14 14 13 12 9 10 10 9 8 6 6 6 7 8 7 7 7 6 6 5 4 2 2 3 3 3
3 3 4 5 6 6 7 7 8 10 11 12 13 14 16 20 22 20 17 21 26 21 15 12 15 15 11 10 11 11 9 8 8 7 6 4 3 3 4 5 5 5 5 4 4 3 1 1 2 4 4 4 5 6
2 4 4 5 6 7 8 9 10 9 8 10 12 14 17 17 17 18 17 13 11 10 13 16 14 11 9 10 10 8 6 7 6 4 3 2 2 4 5 6 6 5 3 1 0 1 3 3 5 6 6 7 10 14
3 3 2 3 4 5 6 8 10 10 11 10 8 6 8 13 13 9 6 8 10 11 10 11 11 11 12 9 7 8 8 7 5 4 4 4 6 7 7 6 5 4 4 3 4 5 6 7 8 8 10 13 17 19
5 7 6 3 2 2 2 4 5 5 4 5 10 12 12 11 9 10 10 11 11 11 12 12 12 12 10 9 9 8 7 6 6 6 8 9 10 9 8 7 6 6 6 7 8 9 9 10 10 11 15 18 20 21
6 7 7 5 2 1 4 6 7 8 9 9 10 10 10 11 10 10 11 11 12 12 12 12 12 11 11 11 9 9 9 8 10 13 12 11 10 9 9 8 9 9 10 10 11 11 12 12 13 15 17 20 21 22
8 8 8 6 5 4 1 3 3 4 7 9 11 13 13 12 11 12 12 12 12 12 12 12 12 12 12 10 10 10 11 13 13 13 12 11 11 10 11 12 12 11 11 12 12 13 13 14 16 17 20 22 23 23
6 6 5 5 3 1 2 4 4 5 7 9 11 12 12 11 11 12 12 12 13 13 12 13 13 12 12 13 12 15 16 14 14 13 13 13 13 13 13 12 12 12 13 13 13 14 14 16 19 20 22 23 24 24
6 6 7 7 6 4 1 2 4 5 7 8 8 9 11 11 12 13 13 14 15 15 14 14 14 15 15 15 17 16 16 16 15 15 15 15 14 14 13 13 13 13 13 14 15 15 16 18 20 22 24 24 23 21
4 6 7 8 8 7 6 5 5 5 6 7 8 9 10 12 13 15 16 16 16 15 15 16 16 16 17 17 18 18 17 16 16 16 15 15 14 14 14 14 13 13 14 14 15 15 17 19 21 21 22 22 20 19
Wind_Direction
252 255 256 258 259 259 258 261 262 263 259 263 265 265 268 268 271 268 268 266 267 272 269 272 274 274 276 280 281 281 282 283 282 281 282 283 284 283 286 286 285 287 290 293 293 295 296 297 295 296 295 294 297 295
250 250 253 256 258 255 258 258 259 261 262 261 261 263 264 268 269 268 268 268 266 268 269 269 270 274 274 276 279 280 283 282 283 280 280 283 284 283 284 286 286 287 291 293 294 295 296 297 297 297 296 294 293 292
247 249 252 252 253 254 258 259 258 260 260 260 261 261 262 265 267 268 267 269 269 268 268 269 270 271 274 275 276 279 282 284 283 284 281 283 284 286 286 287 287 289 292 293 294 295 297 299 298 297 296 294 293 294
247 249 250 251 251 250 252 253 255 258 260 260 261 260 259 261 265 266 266 267 268 268 268 270 270 272 273 276 277 279 281 284 284 283 284 284 285 287 287 289 290 289 291 292 294 296 296 296 295 294 294 295 295 296
249 248 248 247 249 251 252 253 254 255 256 257 257 258 259 260 262 266 268 268 268 271 269 268 270 272 274 276 277 281 281 285 284 283 285 285 285 286 288 289 289 289 291 293 294 294 294 293 293 293 294 295 296 297
248 248 246 248 249 250 251 252 252 254 255 256 256 258 258 258 259 263 265 267 269 271 271 269 271 273 275 276 278 280 282 282 283 283 284 285 284 285 286 288 288 288 291 291 292 293 294 293 293 293 295 297 297 296
250 247 247 247 247 250 252 252 252 253 255 255 255 257 260 261 261 263 264 265 268 271 272 270 273 275 276 276 278 279 280 281 281 281 282 282 284 285 286 287 285 288 289 289 291 291 294 295 294 294 296 295 296 296
245 248 247 246 246 247 248 249 251 252 254 255 256 258 257 258 261 263 265 265 267 267 268 270 272 274 276 277 278 279 279 280 280 281 282 283 285 284 284 284 286 287 288 289 288 290 293 293 293 294 293 294 293 293
246 245 245 246 248 249 250 249 249 251 252 253 255 254 255 256 255 257 259 262 264 265 267 270 271 272 273 274 275 277 277 278 278 280 281 283 283 283 284 284 285 286 287 288 289 292 292 293 292 294 294 293 294 294
249 249 247 246 247 248 249 250 250 250 250 252 254 255 255 253 254 255 256 259 259 260 263 265 268 270 271 271 272 274 273 274 275 277 278 279 279 279 281 284 286 288 289 291 292 292 291 292 291 293 293 294 295 294
249 250 250 249 248 247 248 248 249 251 251 251 252 255 256 256 256 257 256 256 258 261 263 264 266 266 269 270 271 272 272 273 275 277 279 280 281 283 286 288 289 290 291 292 292 290 289 290 291 292 294 294 294 294
249 248 247 247 248 249 249 248 249 250 251 251 253 255 255 256 259 258 258 259 259 260 263 263 264 266 268 269 270 271 272 274 275 276 278 280 283 285 284 287 290 290 290 290 290 290 291 292 293 293 293 293 294 293
253 250 249 248 248 247 247 247 248 250 251 252 253 254 256 257 258 258 259 259 260 260 261 262 262 263 266 268 269 271 272 273 274 276 279 281 283 284 284 284 286 289 290 288 288 291 292 292 291 292 292 292 290 292
253 251 249 248 248 248 248 248 249 249 250 252 254 255 256 258 259 259 260 260 258 260 261 261 260 262 264 267 269 271 272 274 276 279 280 282 282 280 282 287 287 287 285 288 290 291 289 290 290 292 291 290 292 294
252 250 249 248 247 247 247 248 249 249 250 253 255 257 259 258 255 257 257 257 257 258 260 262 262 264 266 267 268 271 273 275 276 278 280 280 280 281 284 285 283 283 288 290 288 287 289 290 290 290 291 293 294 294
250 249 249 249 248 248 247 247 247 249 250 252 254 255 253 254 253 253 256 257 260 263 264 264 263 264 266 267 270 271 272 274 275 276 277 278 280 283 285 283 284 289 290 288 288 289 289 289 290 291 294 294 294 296
249 250 250 250 250 248 247 246 246 246 250 251 249 249 251 252 253 255 259 262 262 262 262 262 264 266 268 268 268 269 271 272 273 275 276 279 282 287 283 284 289 289 286 286 285 286 289 290 292 295 295 297 301 301
248 247 246 247 249 246 242 243 244 244 243 244 247 249 251 253 255 257 259 262 263 259 257 257 260 263 265 267 268 269 271 272 273 276 278 282 283 277 279 284 285 283 283 284 289 291 292 292 292 297 300 300 299 298
250 250 250 251 249 245 242 241 240 240 243 245 248 248 249 250 251 254 253 251 252 255 257 258 260 260 263 266 269 270 271 274 275 276 281 279 277 278 280 282 283 284 288 291 290 288 292 295 302 301 294 296 298 296
249 249 246 242 242 242 241 241 241 242 245 248 251 252 253 252 250 250 246 248 250 255 261 261 259 261 264 267 268 270 273 270 274 280 278 278 280 277 281 284 284 285 288 287 286 293 300 302 293 289 294 300 299 300
253 251 248 245 242 240 239 241 242 244 245 247 248 246 243 242 241 240 241 245 252 258 263 265 269 262 259 262 267 270 267 271 277 275 281 285 274 278 281 280 284 284 282 284 299 300 298 292 285 288 291 297 302 306
258 252 251 246 243 237 233 235 238 242 244 244 240 237 238 239 242 236 233 243 256 261 269 277 254 254 260 268 266 265 270 272 272 276 282 276 273 279 284 285 283 284 292 308 298 287 283 282 285 292 298 301 305 307
292 277 261 246 239 233 235 239 241 246 250 249 245 246 250 249 239 225 229 244 251 264 265 249 254 258 257 253 260 264 265 264 266 273 272 273 277 274 275 281 299 308 292 291 282 273 273 280 287 294 301 308 323 338
273 272 263 258 256 251 248 245 245 246 245 243 243 241 234 228 225 227 232 240 238 232 238 256 259 251 244 244 254 260 264 261 266 265 263 264 268 275 286 307 310 285 265 258 265 268 275 290 306 311 350 11 14 51
211 222 233 233 232 226 217 220 235 243 235 224 222 214 208 209 216 221 223 221 230 240 252 246 236 241 241 243 247 244 243 247 247 243 242 249 266 280 288 272 248 237 236 236 239 256 277 16 50 54 52 51 75 103
185 193 218 222 221 211 199 194 193 193 213 229 224 226 226 224 221 221 230 243 247 227 226 228 233 234 232 229 221 214 220 225 216 206 198 219 238 244 226 203 184 187 191 189 137 73 82 87 86 82 79 93 108 112
280 240 196 208 227 232 223 212 209 202 188 180 181 193 220 231 229 227 223 208 214 220 219 218 214 208 203 198 188 189 195 187 168 160 160 185 194 189 182 174 160 135 114 111 111 112 113 105 97 94 106 111 109 109
2 352 337 348 91 120 170 177 176 182 183 190 191 182 185 190 193 198 202 201 201 202 201 200 197 192 176 176 177 174 158 155 153 162 175 180 171 161 146 130 120 119 121 115 112 111 107 105 103 110 114 111 112 116
55 50 39 24 42 153 164 162 161 159 152 153 158 156 165 174 186 194 183 180 186 191 187 185 183 172 171 171 159 153 156 160 167 173 169 164 150 136 135 135 127 114 105 105 108 107 107 110 115 118 115 115 117 116
62 62 57 47 18 345 257 160 163 177 168 167 170 165 158 160 169 179 180 175 171 171 175 173 167 166 162 155 154 160 166 167 165 157 150 145 138 139 134 121 107 106 106 105 105 109 112 117 119 120 119 118 116 116
97 104 107 95 91 147 237 193 174 171 170 171 168 162 154 153 160 165 162 161 166 171 171 168 165 160 159 160 164 167 165 163 153 147 147 140 137 131 118 114 115 110 109 109 110 113 116 122 121 122 119 118 118 119
139 154 146 136 119 113 153 204 185 174 171 166 162 159 159 161 159 158 161 167 169 167 165 162 160 162 163 167 168 167 162 155 148 148 142 137 131 126 124 121 117 119 118 118 118 119 124 127 126 124 121 121 122 121
177 199 192 176 158 151 163 177 177 177 180 173 173 174 172 166 163 164 164 164 163 163 163 163 161 162 167 169 166 162 156 152 149 143 139 136 133 133 132 124 124 127 126 125 127 128 129 132 132 131 130 129 130 130
Height
10367 10379 10391 10401 10411 10420 10427 10436 10443 10451 10458 10462 10466 10469 10473 10474 10481 10485 10489 10493 10497 10499 10501 10501 10501 10501 10500 10498 10499 10500 10498 10497 10492 10489 10486 10485 10481 10479 10474 10469 10462 10455 10447 10442 10430 10423 10419 10423 10411 10401 10390 10380 10370 10358
10328 10341 10352 10362 10374 10385 10392 10402 10412 10420 10427 10434 10437 10441 10439 10446 10446 10452 10461 10465 10466 10467 10471 10471 10473 10473 10472 10471 10471 10470 10470 10469 10464 10460 10457 10454 10452 10450 10445 10441 10431 10424 10417 10411 10403 10396 10384 10379 10374 10364 10354 10348 10335 10322
10288 10301 10314 10326 10338 10347 10355 10364 10376 10385 10393 10401 10407 10411 10406 10415 10413 10420 10428 10432 10435 10435 10436 10440 10444 10443 10443 10443 10442 10443 10439 10437 10435 10430 10427 10422 10419 10417 10415 10411 10400 10393 10384 10382 10373 10365 10354 10346 10331 10318 10311 10302 10291 10278
10250 10261 10275 10287 10298 10309 10319 10327 10338 10348 10357 10366 10372 10377 10379 10381 10381 10384 10395 10395 10400 10403 10405 10409 10407 10411 10413 10413 10412 10411 10408 10405 10401 10397 10394 10390 10387 10386 10384 10378 10372 10354 10352 10349 10344 10333 10327 10313 10297 10284 10274 10260 10251 10242
10205 10219 10231 10245 10258 10267 10280 10290 10299 10310 10321 10329 10338 10343 10347 10349 10352 10353 10359 10356 10361 10371 10374 10376 10374 10382 10381 10380 10379 10377 10374 10370 10366 10364 10360 10356 10354 10349 10353 10349 10336 10314 10319 10317 10312 10294 10289 10283 10262 10249 10242 10231 10221 10211
10169 10178 10190 10203 10215 10227 10239 10252 10263 10270 10281 10289 10296 10301 10309 10315 10321 10323 10326 10321 10327 10332 10334 10340 10343 10349 10347 10344 10343 10341 10338 10335 10335 10332 10329 10326 10320 10320 10322 10319 10297 10280 10291 10278 10269 10258 10249 10239 10235 10219 10209 10199 10189 10181
10136 10144 10154 10165 10177 10189 10196 10207 10222 10231 10238 10247 10256 10261 10269 10281 10281 10286 10291 10294 10292 10294 10296 10301 10310 10313 10309 10309 10307 10305 10303 10305 10305 10305 10300 10294 10288 10288 10285 10278 10259 10254 10249 10241 10232 10225 10222 10210 10203 10194 10182 10171 10160 10152
10107 10113 10122 10131 10141 10151 10160 10168 10180 10191 10198 10204 10211 10216 10239 10246 10241 10246 10254 10259 10261 10264 10266 10267 10272 10273 10270 10270 10271 10271 10272 10272 10272 10267 10262 10255 10254 10247 10248 10235 10233 10221 10216 10206 10197 10192 10189 10186 10177 10166 10156 10146 10136 10127
10079 10086 10095 10101 10109 10118 10126 10133 10142 10150 10160 10165 10169 10177 10189 10207 10217 10216 10223 10227 10229 10233 10233 10233 10231 10236 10242 10243 10242 10240 10238 10238 10237 10233 10225 10220 10219 10212 10208 10206 10201 10190 10185 10177 10172 10165 10156 10151 10145 10139 10126 10114 10107 10102
10053 10060 10067 10073 10082 10088 10095 10102 10110 10116 10124 10135 10133 10137 10151 10169 10171 10183 10193 10202 10202 10197 10199 10203 10205 10206 10210 10209 10207 10206 10206 10205 10204 10201 10192 10190 10190 10176 10178 10175 10171 10161 10152 10147 10146 10141 10129 10122 10113 10109 10099 10091 10086 10078
10031 10036 10042 10048 10054 10061 10069 10075 10081 10087 10091 10101 10105 10109 10118 10127 10133 10152 10159 10161 10166 10168 10170 10171 10175 10177 10178 10177 10175 10174 10172 10169 10171 10169 10159 10164 10157 10153 10152 10146 10139 10136 10128 10118 10114 10112 10104 10099 10095 10087 10077 10068 10062 10056
10012 10017 10021 10027 10032 10037 10043 10049 10054 10060 10062 10070 10077 10083 10086 10099 10108 10119 10130 10135 10134 10139 10139 10140 10141 10145 10146 10145 10145 10144 10142 10141 10142 10137 10135 10133 10123 10132 10123 10120 10117 10109 10105 10100 10088 10087 10082 10074 10068 10066 10058 10050 10041 10035
9994 9998 10001 10005 10010 10014 10020 10026 10031 10037 10039 10045 10053 10060 10063 10071 10082 10088 10096 10100 10106 10108 10106 10113 10117 10116 10114 10115 10115 10114 10115 10115 10112 10115 10112 10106 10104 10101 10100 10097 10093 10087 10085 10078 10070 10066 10062 10055 10047 10046 10039 10035 10026 10019
9976 9980 9984 9987 9991 9995 9999 10004 10012 10016 10020 10022 10030 10037 10042 10052 10058 10066 10068 10071 10067 10076 10082 10085 10087 10088 10087 10088 10087 10087 10089 10090 10090 10090 10086 10082 10078 10074 10074 10076 10075 10068 10058 10057 10053 10047 10042 10038 10030 10028 10024 10017 10010 10005
9962 9965 9968 9971 9974 9976 9982 9988 9995 9998 10002 10006 10012 10020 10029 10033 10040 10038 10032 10035 10046 10052 10057 10060 10062 10064 10064 10064 10063 10066 10068 10067 10067 10066 10063 10058 10055 10056 10056 10054 10050 10044 10043 10040 10035 10029 10025 10021 10016 10011 10008 10003 9998 9993
9948 9951 9954 9958 9960 9962 9969 9974 9980 9984 9988 9993 9999 10003 10003 10008 10013 10012 10011 10021 10027 10032 10038 10040 10038 10039 10041 10043 10044 10047 10046 10047 10045 10044 10042 10040 10039 10038 10038 10030 10028 10029 10027 10021 10017 10013 10009 10006 10002 9998 9995 9992 9988 9983
9937 9941 9944 9944 9945 9951 9958 9962 9966 9970 9975 9978 9976 9976 9982 9990 9997 9998 10003 10006 10012 10014 10016 10018 10018 10020 10023 10024 10025 10027 10028 10028 10027 10024 10023 10024 10024 10023 10017 10013 10015 10013 10009 10006 10003 10000 9997 9994 9990 9987 9985 9982 9979 9975
9927 9929 9931 9932 9936 9943 9946 9948 9953 9957 9957 9954 9958 9965 9970 9977 9980 9986 9990 9996 9997 9995 9996 10000 10002 10004 10004 10006 10009 10011 10011 10011 10009 10008 10008 10011 10011 10005 10003 10002 10001 9998 9996 9994 9991 9989 9987 9983 9981 9979 9976 9974 9972 9968
9920 9921 9923 9925 9928 9931 9935 9937 9939 9940 9941 9943 9949 9954 9958 9963 9969 9971 9979 9979 9975 9978 9981 9988 9989 9989 9990 9992 9994 9996 9996 9996 9994 9996 9998 9998 9995 9991 9990 9990 9988 9986 9985 9984 9983 9980 9978 9975 9973 9972 9969 9967 9966 9964
9911 9912 9914 9916 9918 9921 9924 9927 9928 9929 9930 9934 9939 9946 9950 9954 9959 9962 9966 9963 9963 9966 9969 9974 9975 9978 9980 9982 9983 9983 9985 9984 9985 9985 9985 9985 9984 9980 9981 9980 9979 9977 9977 9976 9974 9971 9971 9970 9968 9965 9963 9962 9962 9960
9905 9906 9907 9908 9911 9913 9916 9918 9918 9919 9923 9927 9932 9937 9940 9943 9946 9950 9954 9950 9953 9958 9959 9964 9968 9968 9967 9971 9974 9975 9973 9975 9977 9974 9974 9976 9974 9972 9972 9972 9972 9971 9970 9968 9967 9965 9965 9965 9963 9962 9960 9959 9957 9955
9900 9901 9902 9904 9905 9908 9909 9909 9910 9912 9915 9920 9925 9927 9930 9935 9939 9943 9943 9944 9947 9948 9952 9959 9957 9960 9963 9965 9964 9962 9965 9967 9967 9967 9967 9967 9967 9966 9966 9966 9965 9965 9963 9962 9962 9963 9962 9961 9960 9958 9957 9955 9953 9952
9896 9898 9899 9900 9901 9902 9904 9905 9906 9908 9911 9915 9918 9921 9924 9928 9931 9934 9934 9938 9938 9943 9947 9947 9950 9954 9956 9956 9957 9958 9960 9960 9959 9960 9961 9961 9961 9961 9961 9960 9960 9959 9959 9960 9961 9961 9960 9958 9957 9955 9954 9953 9952 9951
9892 9893 9895 9897 9898 9900 9901 9902 9903 9905 9907 9910 9913 9916 9919 9921 9924 9925 9927 9932 9937 9939 9939 9943 9946 9947 9949 9950 9952 9953 9953 9953 9954 9956 9957 9957 9957 9957 9957 9956 9956 9957 9959 9959 9959 9958 9957 9956 9955 9954 9953 9953 9951 9951
9890 9890 9892 9893 9895 9896 9897 9899 9901 9902 9904 9906 9908 9911 9913 9915 9917 9921 9925 9928 9929 9933 9937 9939 9941 9943 9945 9946 9947 9948 9949 9950 9952 9953 9953 9953 9954 9954 9954 9955 9956 9957 9957 9957 9957 9956 9956 9955 9954 9954 9953 9952 9952 9952
9888 9889 9890 9891 9892 9893 9894 9895 9897 9898 9901 9902 9905 9907 9909 9912 9915 9918 9921 9925 9929 9930 9932 9934 9937 9939 9941 9944 9944 9944 9946 9948 9949 9949 9950 9952 9953 9954 9955 9956 9956 9956 9956 9956 9956 9955 9955 9955 9955 9955 9954 9954 9954 9954
9891 9891 9891 9892 9893 9894 9895 9896 9897 9898 9899 9900 9903 9906 9909 9910 9913 9916 9919 9922 9924 9926 9929 9932 9935 9937 9938 9940 9941 9942 9944 9945 9946 9948 9950 9951 9953 9955 9955 9955 9955 9956 9956 9956 9956 9956 9956 9957 9956 9957 9957 9957 9957 9958
9893 9893 9894 9894 9895 9896 9896 9897 9898 9900 9901 9902 9903 9904 9906 9908 9911 9914 9917 9920 9923 9926 9929 9932 9934 9935 9936 9938 9939 9941 9942 9944 9946 9949 9951 9953 9954 9954 9955 9955 9956 9956 9957 9957 9957 9958 9958 9959 9959 9960 9960 9960 9962 9963
9894 9895 9895 9895 9895 9896 9897 9898 9898 9899 9900 9902 9904 9905 9906 9907 9910 9913 9917 9919 9922 9925 9928 9930 9932 9933 9935 9937 9938 9940 9943 9946 9948 9950 9952 9953 9954 9955 9956 9957 9957 9957 9957 9958 9959 9960 9960 9961 9962 9963 9963 9965 9966 9968
9895 9895 9895 9896 9897 9897 9897 9898 9899 9900 9902 9902 9903 9904 9906 9908 9910 9913 9916 9919 9922 9924 9927 9929 9931 9933 9934 9936 9939 9942 9945 9947 9950 9951 9953 9954 9955 9956 9957 9958 9958 9959 9959 9960 9961 9962 9963 9965 9966 9967 9968 9970 9971 9973
9896 9895 9895 9896 9896 9897 9898 9899 9900 9902 9903 9904 9904 9905 9907 9909 9911 9914 9917 9919 9922 9925 9927 9929 9931 9933 9935 9938 9941 9944 9947 9949 9950 9952 9953 9955 9956 9957 9958 9959 9960 9961 9962 9963 9965 9966 9968 9969 9970 9971 9973 9975 9977 9979
9897 9896 9895 9896 9896 9898 9899 9900 9902 9903 9903 9904 9906 9907 9909 9911 9913 9915 9918 9920 9923 9925 9928 9930 9932 9935 9937 9940 9944 9946 9948 9950 9952 9953 9954 9956 9957 9958 9959 9961 9962 9964 9965 9966 9968 9970 9972 9973 9974 9976 9978 9980 9982 9984
9897 9896 9896 9896 9896 9897 9899 9900 9902 9903 9904 9905 9907 9909 9910 9912 9914 9916 9919 9921 9924 9926 9928 9931 9934 9936 9939 9942 9945 9947 9949 9951 9953 9954 9955 9957 9958 9960 9962 9963 9965 9967 9968 9970 9972 9973 9974 9976 9978 9980 9981 9984 9986 9987